WXM80 ListenWXM80 Stop

You find our weather info also at:

UK Metoffice

WeatherCloud

Weather Underground

Northeastern Weather Network

AWEKAS

Citizen Weather Observer Program (CWOP)

HAMweather, WeatherForYou, PWS Weather


Weather Underground History page Text

Daily Summary for January 20, 2016 Units:  English    Metric   Both
« Previous Day
Next Day »
Daily Weekly Monthly Yearly Custom
  High: Low: Average:
Temperature: 38.3 °F 29.3 °F 32.6 °F
Dew Point: 22.6 °F 18.1 °F 20.8 °F
Humidity: 70 % 49 % 62 %
Wind Speed: 14.7 mph 0.0 mph 5.3 mph
Wind Gust: 24.2 mph - -
Wind:- - WSW
Pressure: 30.18 in 30.03 in -
Precipitation: 0.00 in    
Historical Graphs
 
 
Tabular Data for January 20, 2016
Time Temperature Dew Point Pressure Wind Wind Speed Wind Gust Humidity Rainfall Rate (Hourly)
00:04 29.3 °F 19.7 °F 30.03 in WSW 9.5 mph 17.3 mph 67 % 0.00 in
00:10 29.3 °F 19.7 °F 30.04 in West 10.2 mph 19.6 mph 67 % 0.00 in
00:15 29.3 °F 19.7 °F 30.04 in SSW 5.2 mph 16.1 mph 67 % 0.00 in
00:25 29.3 °F 19.7 °F 30.04 in SW 7.9 mph 19.6 mph 67 % 0.00 in
00:30 29.3 °F 19.7 °F 30.04 in WNW 11.5 mph 19.6 mph 67 % 0.00 in
00:35 29.4 °F 19.4 °F 30.04 in WNW 5.3 mph 15.0 mph 66 % 0.00 in
00:40 29.3 °F 19.7 °F 30.04 in NW 7.6 mph 15.0 mph 67 % 0.00 in
00:45 29.3 °F 19.3 °F 30.04 in NE 8.6 mph 19.6 mph 66 % 0.00 in
00:55 29.3 °F 20.0 °F 30.05 in SSW 9.9 mph 18.4 mph 68 % 0.00 in
01:01 29.3 °F 20.0 °F 30.04 in SW 7.8 mph 10.4 mph 68 % 0.00 in
01:11 29.5 °F 20.2 °F 30.04 in West 7.1 mph 12.0 mph 68 % 0.00 in
01:16 29.5 °F 20.2 °F 30.05 in West 8.1 mph 17.3 mph 68 % 0.00 in
01:26 29.5 °F 20.6 °F 30.05 in ENE 6.6 mph 15.0 mph 69 % 0.00 in
01:31 29.5 °F 20.2 °F 30.05 in WNW 9.7 mph 19.6 mph 68 % 0.00 in
01:36 29.5 °F 20.2 °F 30.05 in WNW 9.5 mph 19.6 mph 68 % 0.00 in
01:41 29.6 °F 20.3 °F 30.04 in NW 10.0 mph 18.4 mph 68 % 0.00 in
01:46 29.6 °F 20.7 °F 30.04 in WNW 10.0 mph 15.0 mph 69 % 0.00 in
01:52 29.6 °F 20.3 °F 30.03 in WNW 12.0 mph 19.6 mph 68 % 0.00 in
01:57 29.6 °F 20.3 °F 30.04 in West 8.3 mph 21.9 mph 68 % 0.00 in
02:02 29.7 °F 20.4 °F 30.04 in WSW 10.2 mph 19.6 mph 68 % 0.00 in
02:07 29.7 °F 20.8 °F 30.04 in WNW 10.1 mph 16.1 mph 69 % 0.00 in
02:12 29.8 °F 20.5 °F 30.05 in WNW 14.7 mph 23.0 mph 68 % 0.00 in
02:17 29.8 °F 20.5 °F 30.06 in WSW 7.6 mph 17.3 mph 68 % 0.00 in
02:22 29.8 °F 20.5 °F 30.06 in West 11.8 mph 20.7 mph 68 % 0.00 in
02:27 29.7 °F 20.4 °F 30.07 in WNW 12.9 mph 19.0 mph 68 % 0.00 in
02:32 29.6 °F 20.3 °F 30.07 in WSW 13.0 mph 19.0 mph 68 % 0.00 in
02:37 29.7 °F 20.4 °F 30.07 in WSW 8.6 mph 15.0 mph 68 % 0.00 in
02:43 29.6 °F 20.3 °F 30.08 in WNW 9.6 mph 18.4 mph 68 % 0.00 in
02:48 29.6 °F 20.7 °F 30.07 in West 13.7 mph 24.2 mph 69 % 0.00 in
02:53 29.6 °F 20.7 °F 30.07 in WSW 8.5 mph 20.7 mph 69 % 0.00 in
02:58 29.6 °F 20.7 °F 30.07 in WSW 8.6 mph 18.4 mph 69 % 0.00 in
03:03 29.6 °F 20.7 °F 30.08 in NNW 9.1 mph 20.7 mph 69 % 0.00 in
03:13 29.6 °F 20.7 °F 30.08 in SSW 9.8 mph 16.1 mph 69 % 0.00 in
03:18 29.5 °F 20.6 °F 30.08 in WSW 8.7 mph 16.1 mph 69 % 0.00 in
03:23 29.5 °F 20.6 °F 30.09 in WNW 8.1 mph 13.0 mph 69 % 0.00 in
03:28 29.4 °F 20.5 °F 30.09 in WNW 6.8 mph 11.5 mph 69 % 0.00 in
03:34 29.4 °F 20.5 °F 30.09 in WNW 6.0 mph 18.4 mph 69 % 0.00 in
03:39 29.4 °F 20.5 °F 30.09 in WNW 8.4 mph 19.6 mph 69 % 0.00 in
03:44 29.5 °F 20.6 °F 30.09 in WSW 8.2 mph 19.6 mph 69 % 0.00 in
03:54 29.6 °F 21.0 °F 30.09 in West 9.1 mph 16.1 mph 70 % 0.00 in
03:59 29.7 °F 21.1 °F 30.09 in West 8.6 mph 13.8 mph 70 % 0.00 in
04:04 29.7 °F 21.1 °F 30.09 in WNW 6.3 mph 12.7 mph 70 % 0.00 in
04:09 29.8 °F 21.2 °F 30.10 in West 10.4 mph 18.4 mph 70 % 0.00 in
04:19 29.8 °F 20.9 °F 30.11 in West 9.7 mph 12.7 mph 69 % 0.00 in
04:25 29.9 °F 21.0 °F 30.11 in West 9.7 mph 18.4 mph 69 % 0.00 in
04:30 29.8 °F 20.9 °F 30.11 in West 7.6 mph 11.5 mph 69 % 0.00 in
04:35 29.8 °F 20.9 °F 30.11 in NW 12.2 mph 18.4 mph 69 % 0.00 in
04:40 29.8 °F 20.9 °F 30.12 in WNW 6.1 mph 17.3 mph 69 % 0.00 in
04:45 29.8 °F 20.9 °F 30.12 in WNW 6.1 mph 13.8 mph 69 % 0.00 in
04:50 29.8 °F 20.9 °F 30.12 in WSW 5.9 mph 12.7 mph 69 % 0.00 in
04:55 29.8 °F 20.5 °F 30.12 in WNW 8.3 mph 17.0 mph 68 % 0.00 in
05:00 29.9 °F 20.6 °F 30.12 in NNE 9.5 mph 21.0 mph 68 % 0.00 in
05:05 29.9 °F 20.6 °F 30.13 in NW 11.3 mph 17.3 mph 68 % 0.00 in
05:10 29.9 °F 20.6 °F 30.13 in WNW 7.6 mph 17.3 mph 68 % 0.00 in
05:16 29.9 °F 20.3 °F 30.12 in NW 8.6 mph 17.3 mph 67 % 0.00 in
05:21 29.9 °F 20.3 °F 30.12 in NW 9.7 mph 19.6 mph 67 % 0.00 in
05:26 29.9 °F 20.3 °F 30.13 in WNW 11.3 mph 19.6 mph 67 % 0.00 in
05:31 29.9 °F 20.6 °F 30.13 in WNW 10.8 mph 17.3 mph 68 % 0.00 in
05:36 29.9 °F 20.3 °F 30.14 in West 11.5 mph 20.7 mph 67 % 0.00 in
05:41 30.0 °F 20.4 °F 30.14 in WNW 10.8 mph 21.0 mph 67 % 0.00 in
05:46 30.0 °F 20.4 °F 30.15 in NNW 7.4 mph 11.5 mph 67 % 0.00 in
05:51 30.0 °F 20.4 °F 30.15 in WNW 4.3 mph 16.0 mph 67 % 0.00 in
05:56 29.9 °F 20.3 °F 30.15 in WSW 4.7 mph 17.3 mph 67 % 0.00 in
06:01 29.9 °F 20.3 °F 30.15 in WNW 6.3 mph 16.1 mph 67 % 0.00 in
06:07 29.9 °F 20.3 °F 30.15 in NW 9.4 mph 18.0 mph 67 % 0.00 in
06:12 29.8 °F 20.2 °F 30.15 in WNW 9.8 mph 18.0 mph 67 % 0.00 in
06:17 29.8 °F 20.2 °F 30.15 in WSW 10.1 mph 15.0 mph 67 % 0.00 in
06:22 29.8 °F 20.5 °F 30.15 in WNW 7.0 mph 13.8 mph 68 % 0.00 in
06:27 29.8 °F 20.5 °F 30.15 in NW 5.9 mph 9.2 mph 68 % 0.00 in
06:32 29.8 °F 20.2 °F 30.16 in WSW 9.6 mph 16.1 mph 67 % 0.00 in
06:37 29.8 °F 20.2 °F 30.15 in NW 8.3 mph 19.6 mph 67 % 0.00 in
06:42 29.8 °F 20.2 °F 30.16 in North 9.0 mph 19.6 mph 67 % 0.00 in
06:47 29.8 °F 20.5 °F 30.16 in NW 5.9 mph 11.5 mph 68 % 0.00 in
06:52 29.7 °F 20.1 °F 30.17 in WSW 6.5 mph 12.0 mph 67 % 0.00 in
06:58 29.7 °F 20.1 °F 30.16 in WNW 7.9 mph 11.5 mph 67 % 0.00 in
07:03 29.6 °F 19.6 °F 30.16 in WNW 9.9 mph 17.3 mph 66 % 0.00 in
07:08 29.6 °F 20.3 °F 30.15 in NW 6.6 mph 12.7 mph 68 % 0.00 in
07:13 29.6 °F 20.0 °F 30.16 in WSW 6.8 mph 18.4 mph 67 % 0.00 in
07:18 29.6 °F 20.3 °F 30.16 in WNW 8.6 mph 19.6 mph 68 % 0.00 in
07:23 29.6 °F 20.0 °F 30.16 in NW 10.0 mph 15.0 mph 67 % 0.00 in
07:33 29.7 °F 20.4 °F 30.15 in West 10.1 mph 19.0 mph 68 % 0.00 in
07:38 29.8 °F 20.2 °F 30.16 in NNW 6.8 mph 19.6 mph 67 % 0.00 in
07:43 29.8 °F 20.2 °F 30.16 in WSW 7.9 mph 18.4 mph 67 % 0.00 in
07:49 29.8 °F 20.2 °F 30.17 in West 6.7 mph 11.5 mph 67 % 0.00 in
07:54 29.9 °F 20.3 °F 30.17 in WNW 7.8 mph 22.0 mph 67 % 0.00 in
07:59 29.9 °F 19.9 °F 30.17 in WNW 9.4 mph 17.3 mph 66 % 0.00 in
08:04 29.9 °F 20.3 °F 30.17 in WNW 10.3 mph 19.6 mph 67 % 0.00 in
08:09 30.0 °F 20.4 °F 30.16 in WSW 7.9 mph 13.8 mph 67 % 0.00 in
08:14 30.1 °F 20.5 °F 30.17 in NW 10.0 mph 17.3 mph 67 % 0.00 in
08:19 30.2 °F 20.6 °F 30.17 in NW 9.2 mph 16.1 mph 67 % 0.00 in
08:24 30.4 °F 20.7 °F 30.16 in WSW 6.6 mph 10.4 mph 67 % 0.00 in
08:29 30.5 °F 20.8 °F 30.16 in WNW 9.5 mph 13.8 mph 67 % 0.00 in
08:35 30.6 °F 20.6 °F 30.16 in WNW 5.2 mph 15.0 mph 66 % 0.00 in
08:40 30.7 °F 20.7 °F 30.17 in NW 8.9 mph 16.1 mph 66 % 0.00 in
08:45 30.9 °F 20.5 °F 30.17 in WNW 9.1 mph 20.7 mph 65 % 0.00 in
08:50 31.0 °F 20.6 °F 30.17 in WNW 7.0 mph 15.0 mph 65 % 0.00 in
08:55 31.1 °F 20.7 °F 30.17 in NW 3.9 mph 12.0 mph 65 % 0.00 in
09:00 31.2 °F 20.8 °F 30.17 in WSW 6.4 mph 12.0 mph 65 % 0.00 in
09:05 31.4 °F 20.6 °F 30.17 in NW 7.1 mph 11.5 mph 64 % 0.00 in
09:10 31.5 °F 20.7 °F 30.18 in NW 7.7 mph 11.5 mph 64 % 0.00 in
09:15 31.7 °F 20.9 °F 30.18 in WSW 3.1 mph 13.8 mph 64 % 0.00 in
09:26 32.2 °F 21.0 °F 30.17 in NW 5.3 mph 13.8 mph 63 % 0.00 in
09:31 32.4 °F 21.2 °F 30.17 in NNW 7.5 mph 11.5 mph 63 % 0.00 in
09:36 32.6 °F 21.0 °F 30.17 in West 5.1 mph 10.4 mph 62 % 0.00 in
09:41 32.7 °F 21.1 °F 30.17 in WSW 7.3 mph 10.4 mph 62 % 0.00 in
09:46 32.8 °F 21.6 °F 30.18 in NNW 6.0 mph 11.5 mph 63 % 0.00 in
09:51 33.0 °F 21.4 °F 30.17 in West 3.9 mph 5.8 mph 62 % 0.00 in
09:56 33.3 °F 21.7 °F 30.18 in North 3.8 mph 9.2 mph 62 % 0.00 in
10:01 33.5 °F 21.5 °F 30.18 in NW 6.9 mph 11.5 mph 61 % 0.00 in
10:06 33.7 °F 21.7 °F 30.18 in West 5.5 mph 10.4 mph 61 % 0.00 in
10:27 34.0 °F 21.6 °F 30.17 in WNW 8.0 mph 11.5 mph 60 % 0.00 in
10:32 34.2 °F 21.7 °F 30.17 in West 5.0 mph 9.2 mph 60 % 0.00 in
10:37 34.2 °F 21.4 °F 30.16 in WNW 4.5 mph 10.4 mph 59 % 0.00 in
10:42 34.2 °F 21.4 °F 30.16 in WSW 6.2 mph 11.5 mph 59 % 0.00 in
10:47 34.0 °F 21.2 °F 30.16 in NW 4.8 mph 13.8 mph 59 % 0.00 in
10:53 34.0 °F 21.2 °F 30.16 in WSW 7.3 mph 10.0 mph 59 % 0.00 in
10:58 34.1 °F 21.7 °F 30.16 in WNW 6.2 mph 14.0 mph 60 % 0.00 in
11:03 34.2 °F 21.4 °F 30.16 in WNW 7.6 mph 11.5 mph 59 % 0.00 in
11:13 34.5 °F 21.6 °F 30.15 in WNW 6.0 mph 11.5 mph 59 % 0.00 in
11:18 34.7 °F 21.8 °F 30.15 in WSW 4.8 mph 6.9 mph 59 % 0.00 in
11:23 34.8 °F 21.5 °F 30.15 in NW 6.4 mph 9.0 mph 58 % 0.00 in
11:28 34.8 °F 21.5 °F 30.15 in NW 3.8 mph 11.5 mph 58 % 0.00 in
11:33 34.8 °F 21.1 °F 30.15 in WNW 6.6 mph 15.0 mph 57 % 0.00 in
11:38 34.8 °F 21.5 °F 30.15 in WSW 8.0 mph 11.5 mph 58 % 0.00 in
11:44 34.8 °F 21.1 °F 30.14 in WNW 4.1 mph 11.5 mph 57 % 0.00 in
11:49 34.9 °F 21.6 °F 30.14 in West 5.0 mph 11.0 mph 58 % 0.00 in
11:59 35.1 °F 21.4 °F 30.13 in WNW 5.4 mph 10.4 mph 57 % 0.00 in
12:04 35.2 °F 21.9 °F 30.13 in NW 5.5 mph 10.0 mph 58 % 0.00 in
12:09 35.4 °F 22.1 °F 30.13 in WNW 2.0 mph 3.5 mph 58 % 0.00 in
12:14 35.6 °F 22.3 °F 30.12 in NW 2.1 mph 4.6 mph 58 % 0.00 in
12:19 35.8 °F 21.6 °F 30.12 in West 4.5 mph 6.9 mph 56 % 0.00 in
12:24 36.0 °F 21.8 °F 30.11 in WNW 5.1 mph 10.4 mph 56 % 0.00 in
12:35 36.3 °F 21.7 °F 30.11 in WNW 5.5 mph 9.2 mph 55 % 0.00 in
12:40 36.4 °F 22.2 °F 30.11 in West 6.9 mph 8.1 mph 56 % 0.00 in
12:45 36.4 °F 22.2 °F 30.10 in WSW 5.1 mph 8.1 mph 56 % 0.00 in
12:50 36.6 °F 22.4 °F 30.10 in NW 3.5 mph 9.2 mph 56 % 0.00 in
12:55 36.8 °F 22.6 °F 30.10 in West 3.2 mph 8.1 mph 56 % 0.00 in
13:00 37.0 °F 21.9 °F 30.10 in NW 4.7 mph 9.2 mph 54 % 0.00 in
13:05 37.2 °F 21.6 °F 30.09 in NW 3.9 mph 8.1 mph 53 % 0.00 in
13:10 37.4 °F 22.3 °F 30.09 in WSW 5.5 mph 9.2 mph 54 % 0.00 in
13:15 37.5 °F 21.9 °F 30.09 in WSW 5.3 mph 6.0 mph 53 % 0.00 in
13:20 37.6 °F 22.0 °F 30.09 in West 4.4 mph 6.0 mph 53 % 0.00 in
13:26 37.7 °F 21.6 °F 30.09 in WNW 2.1 mph 6.9 mph 52 % 0.00 in
13:31 37.8 °F 22.6 °F 30.09 in West 1.9 mph 5.8 mph 54 % 0.00 in
13:36 37.9 °F 22.3 °F 30.08 in WNW 5.3 mph 12.0 mph 53 % 0.00 in
13:41 38.0 °F 21.5 °F 30.08 in NNW 5.5 mph 10.4 mph 51 % 0.00 in
13:46 38.1 °F 21.1 °F 30.08 in WSW 7.5 mph 11.5 mph 50 % 0.00 in
13:51 38.0 °F 21.5 °F 30.08 in WSW 3.8 mph 6.9 mph 51 % 0.00 in
13:56 38.1 °F 21.5 °F 30.08 in West 2.4 mph 8.1 mph 51 % 0.00 in
14:01 38.2 °F 21.6 °F 30.08 in WNW 6.0 mph 9.2 mph 51 % 0.00 in
14:06 38.2 °F 21.2 °F 30.08 in SW 2.7 mph 5.0 mph 50 % 0.00 in
14:11 38.3 °F 21.3 °F 30.08 in WSW 3.4 mph 8.1 mph 50 % 0.00 in
14:17 38.1 °F 20.6 °F 30.08 in West 5.1 mph 9.2 mph 49 % 0.00 in
14:22 37.9 °F 20.9 °F 30.08 in WNW 2.9 mph 6.9 mph 50 % 0.00 in
14:27 37.7 °F 20.7 °F 30.07 in NW 2.7 mph 8.1 mph 50 % 0.00 in
14:32 37.5 °F 21.0 °F 30.07 in WNW 2.9 mph 10.4 mph 51 % 0.00 in
14:37 37.5 °F 21.0 °F 30.08 in WSW 3.5 mph 5.8 mph 51 % 0.00 in
14:42 37.4 °F 20.9 °F 30.07 in SW 5.1 mph 8.1 mph 51 % 0.00 in
14:47 37.4 °F 20.9 °F 30.07 in NNW 2.0 mph 5.0 mph 51 % 0.00 in
14:52 37.3 °F 21.3 °F 30.07 in WSW 3.4 mph 6.0 mph 52 % 0.00 in
14:57 37.3 °F 21.3 °F 30.07 in WSW 2.8 mph 6.0 mph 52 % 0.00 in
15:02 37.2 °F 21.6 °F 30.07 in WNW 2.8 mph 5.0 mph 53 % 0.00 in
15:08 37.2 °F 21.6 °F 30.07 in NW 1.1 mph 5.8 mph 53 % 0.00 in
15:13 37.3 °F 21.7 °F 30.07 in WNW 0.8 mph 3.5 mph 53 % 0.00 in
15:18 37.3 °F 21.3 °F 30.07 in WNW 4.8 mph 6.9 mph 52 % 0.00 in
15:23 37.5 °F 21.5 °F 30.07 in WSW 3.4 mph 7.0 mph 52 % 0.00 in
15:28 37.5 °F 21.5 °F 30.07 in West 1.5 mph 4.6 mph 52 % 0.00 in
15:33 37.4 °F 21.4 °F 30.06 in SW 4.2 mph 6.9 mph 52 % 0.00 in
15:38 37.4 °F 20.9 °F 30.06 in NNW 2.6 mph 5.8 mph 51 % 0.00 in
15:43 37.3 °F 20.8 °F 30.06 in WNW 2.8 mph 5.8 mph 51 % 0.00 in
15:48 37.1 °F 20.2 °F 30.06 in WNW 2.9 mph 3.5 mph 50 % 0.00 in
15:53 37.0 °F 20.5 °F 30.06 in West 3.0 mph 4.0 mph 51 % 0.00 in
15:59 36.9 °F 20.0 °F 30.06 in WNW 2.1 mph 6.9 mph 50 % 0.00 in
16:04 36.8 °F 20.3 °F 30.06 in NW 2.9 mph 6.9 mph 51 % 0.00 in
16:09 36.7 °F 20.7 °F 30.06 in WNW 2.1 mph 4.6 mph 52 % 0.00 in
16:14 36.6 °F 20.6 °F 30.05 in WNW 1.5 mph 3.5 mph 52 % 0.00 in
16:19 36.5 °F 20.1 °F 30.05 in WNW 1.5 mph 5.0 mph 51 % 0.00 in
16:24 36.4 °F 19.5 °F 30.05 in WNW 0.2 mph 1.2 mph 50 % 0.00 in
16:29 36.3 °F 19.4 °F 30.06 in WSW 1.9 mph 5.8 mph 50 % 0.00 in
16:34 36.3 °F 19.9 °F 30.05 in WNW 1.6 mph 5.0 mph 51 % 0.00 in
16:39 36.2 °F 20.2 °F 30.06 in WSW 2.1 mph 3.5 mph 52 % 0.00 in
16:44 36.1 °F 20.6 °F 30.06 in WNW 2.2 mph 4.0 mph 53 % 0.00 in
16:50 36.0 °F 20.5 °F 30.06 in West 0.6 mph 1.2 mph 53 % 0.00 in
16:55 36.0 °F 20.9 °F 30.06 in WSW 1.9 mph 4.6 mph 54 % 0.00 in
17:00 35.9 °F 21.3 °F 30.06 in SSW 1.0 mph 5.0 mph 55 % 0.00 in
17:05 35.8 °F 21.6 °F 30.05 in SSW 0.2 mph 1.2 mph 56 % 0.00 in
17:10 35.7 °F 21.5 °F 30.05 in SSW 0.5 mph 1.2 mph 56 % 0.00 in
17:15 35.6 °F 21.9 °F 30.06 in SW 1.2 mph 2.3 mph 57 % 0.00 in
17:20 35.3 °F 22.0 °F 30.06 in SW 0.5 mph 2.3 mph 58 % 0.00 in
17:25 35.2 °F 22.3 °F 30.06 in West 1.1 mph 3.5 mph 59 % 0.00 in
17:35 34.8 °F 21.9 °F 30.06 in West 0.5 mph 3.0 mph 59 % 0.00 in
17:41 34.7 °F 21.8 °F 30.06 in WSW 2.7 mph 4.6 mph 59 % 0.00 in
17:46 34.5 °F 22.0 °F 30.06 in WSW 1.1 mph 2.3 mph 60 % 0.00 in
17:56 34.3 °F 21.8 °F 30.06 in Calm     60 % 0.00 in
18:06 34.1 °F 21.7 °F 30.06 in SW 2.1 mph 3.5 mph 60 % 0.00 in
18:11 34.0 °F 22.0 °F 30.06 in Calm     61 % 0.00 in
18:16 33.9 °F 22.2 °F 30.06 in SW 0.1 mph 1.2 mph 62 % 0.00 in
18:21 33.7 °F 22.1 °F 30.07 in SW 0.7 mph 3.5 mph 62 % 0.00 in
18:26 33.6 °F 21.6 °F 30.06 in West 1.2 mph 2.3 mph 61 % 0.00 in
18:32 33.4 °F 21.4 °F 30.06 in Calm   1.2 mph 61 % 0.00 in
18:37 33.3 °F 21.3 °F 30.06 in West 1.3 mph 2.3 mph 61 % 0.00 in
18:42 33.2 °F 21.2 °F 30.06 in West 0.5 mph 2.3 mph 61 % 0.00 in
18:47 33.0 °F 21.0 °F 30.06 in West 0.5 mph 1.2 mph 61 % 0.00 in
18:52 32.9 °F 21.3 °F 30.06 in West 0.3 mph 2.3 mph 62 % 0.00 in
19:02 32.5 °F 21.3 °F 30.06 in SW 1.1 mph 3.5 mph 63 % 0.00 in
19:07 32.4 °F 21.2 °F 30.06 in WSW 0.3 mph 1.2 mph 63 % 0.00 in
19:12 32.2 °F 21.0 °F 30.06 in WSW 0.1 mph 2.3 mph 63 % 0.00 in
19:17 32.1 °F 21.3 °F 30.06 in WSW 1.3 mph 2.3 mph 64 % 0.00 in
19:23 32.0 °F 21.2 °F 30.06 in SW 1.7 mph 3.5 mph 64 % 0.00 in
19:28 31.9 °F 21.5 °F 30.06 in SW 1.2 mph 2.3 mph 65 % 0.00 in
19:33 31.8 °F 21.4 °F 30.06 in SW 1.4 mph 2.3 mph 65 % 0.00 in
19:38 31.7 °F 21.6 °F 30.06 in SW 0.5 mph 1.2 mph 66 % 0.00 in
19:43 31.6 °F 21.5 °F 30.06 in SW 0.2 mph 2.3 mph 66 % 0.00 in
19:48 31.6 °F 21.5 °F 30.06 in SW 0.5 mph 1.2 mph 66 % 0.00 in
19:53 31.5 °F 21.8 °F 30.06 in SW 0.2 mph 1.2 mph 67 % 0.00 in
19:58 31.4 °F 21.7 °F 30.05 in SW 0.5 mph 2.3 mph 67 % 0.00 in
20:14 31.2 °F 21.9 °F 30.06 in West 1.1 mph 3.5 mph 68 % 0.00 in
20:19 31.2 °F 21.9 °F 30.06 in West 1.5 mph 2.3 mph 68 % 0.00 in
20:24 31.2 °F 21.9 °F 30.06 in Calm   2.3 mph 68 % 0.00 in
20:29 31.2 °F 22.2 °F 30.06 in WSW 0.4 mph 1.2 mph 69 % 0.00 in
20:34 31.3 °F 22.3 °F 30.06 in WSW 1.2 mph 3.5 mph 69 % 0.00 in
20:39 31.3 °F 22.3 °F 30.05 in WSW 0.1 mph 1.2 mph 69 % 0.00 in
20:44 31.4 °F 22.4 °F 30.06 in West 0.5 mph 2.0 mph 69 % 0.00 in
20:54 31.7 °F 22.3 °F 30.05 in NNW 3.2 mph 4.0 mph 68 % 0.00 in
21:00 31.9 °F 22.2 °F 30.05 in NNW 2.9 mph 6.0 mph 67 % 0.00 in
21:05 32.1 °F 22.0 °F 30.05 in NNW 3.2 mph 4.6 mph 66 % 0.00 in
21:10 32.2 °F 22.1 °F 30.05 in North 4.8 mph 7.0 mph 66 % 0.00 in
21:15 32.5 °F 21.7 °F 30.05 in NNW 2.1 mph 5.8 mph 64 % 0.00 in
21:20 32.7 °F 21.5 °F 30.05 in NNW 2.7 mph 6.9 mph 63 % 0.00 in
21:25 32.8 °F 22.0 °F 30.05 in North 2.8 mph 5.8 mph 64 % 0.00 in
21:30 32.8 °F 22.0 °F 30.05 in North 2.5 mph 4.0 mph 64 % 0.00 in
21:35 32.8 °F 21.6 °F 30.04 in NNE 2.7 mph 5.8 mph 63 % 0.00 in
21:40 32.8 °F 21.6 °F 30.04 in NE 3.4 mph 4.0 mph 63 % 0.00 in
21:45 32.8 °F 21.2 °F 30.04 in NNE 4.0 mph 6.9 mph 62 % 0.00 in
21:51 32.8 °F 20.4 °F 30.04 in NE 4.0 mph 6.0 mph 60 % 0.00 in
21:56 32.7 °F 19.9 °F 30.05 in NNE 4.1 mph 8.1 mph 59 % 0.00 in
22:01 32.7 °F 19.9 °F 30.05 in North 4.6 mph 6.9 mph 59 % 0.00 in
22:06 32.6 °F 19.8 °F 30.05 in NNE 5.6 mph 6.9 mph 59 % 0.00 in
22:11 32.6 °F 19.8 °F 30.05 in NNE 4.3 mph 8.1 mph 59 % 0.00 in
22:16 32.6 °F 19.4 °F 30.05 in NE 3.0 mph 5.8 mph 58 % 0.00 in
22:21 32.5 °F 19.7 °F 30.06 in NNE 2.9 mph 5.8 mph 59 % 0.00 in
22:26 32.5 °F 19.7 °F 30.06 in NNE 2.3 mph 5.8 mph 59 % 0.00 in
22:31 32.4 °F 19.7 °F 30.05 in NNE 4.3 mph 6.9 mph 59 % 0.00 in
22:42 32.2 °F 19.1 °F 30.05 in North 4.5 mph 6.9 mph 58 % 0.00 in
22:47 32.1 °F 19.0 °F 30.05 in NNE 3.8 mph 9.2 mph 58 % 0.00 in
22:52 32.0 °F 18.5 °F 30.04 in North 4.8 mph 8.1 mph 57 % 0.00 in
22:57 31.8 °F 18.7 °F 30.05 in NNE 3.4 mph 4.6 mph 58 % 0.00 in
23:07 31.6 °F 18.9 °F 30.05 in NNW 4.6 mph 9.2 mph 59 % 0.00 in
23:22 31.4 °F 18.7 °F 30.05 in North 1.8 mph 3.5 mph 59 % 0.00 in
23:27 31.3 °F 19.0 °F 30.05 in NNE 2.0 mph 3.5 mph 60 % 0.00 in
23:33 31.3 °F 19.0 °F 30.05 in NNE 3.5 mph 6.9 mph 60 % 0.00 in
23:38 31.2 °F 19.3 °F 30.05 in North 3.5 mph 6.9 mph 61 % 0.00 in
23:43 31.1 °F 18.8 °F 30.05 in NNW 4.9 mph 8.0 mph 60 % 0.00 in
23:48 31.0 °F 18.3 °F 30.05 in NNE 5.9 mph 9.2 mph 59 % 0.00 in
23:53 31.0 °F 18.3 °F 30.05 in North 3.2 mph 6.9 mph 59 % 0.00 in
23:58 30.8 °F 18.1 °F 30.04 in NNE 4.6 mph 9.0 mph 59 % 0.00 in
Crab Meadow Weather
Compliments of Weather Underground - 2.75 mb

Script developed by  Jim McMurry - jmcmurry@mwt.net Adapted for the template by  Wim van der Kuil - Leuven-Template.eu

Weather Terms: Heat Index - The apparent temperature that describes the combined effect of high temperatures and high levels of humidity, which reduces the body's ability to cool itself.